Regional Weather Roundup
Issued by NWS

Home | Current Version | Previous Version | Text Only | Print | Product List | Glossary On
Versions: 1 2 3 4 5 6 7 8 9 10 11 12 13 14 15 16 17 18 19 20 21 22 23 24 25 26 27 28 29 30 31 32 33 34 35 36 37 38 39 40 41 42 43 44 45 46 47 48 49 50
000
ASUS43 KLSX 250610
RWRMO

WEATHER SUMMARY FOR MISSOURI
NATIONAL WEATHER SERVICE SPRINGFIELD MO
100 AM CDT WED APR 25 2018

NOTE: "FAIR" INDICATES FEW OR NO CLOUDS BELOW 12,000 FEET WITH NO
       SIGNIFICANT WEATHER AND/OR OBSTRUCTIONS TO VISIBILITY.
       CURRENT SKY AND/OR WEATHER CONDITIONS ARE NOT AVAILABLE FOR
       CHILLICOTHE AND FARMINGTON.

MOZ001>031-035>038-043-044-053-054-250700-
...NORTHERN AND WESTERN MISSOURI...

CITY           SKY/WX    TMP DP  RH WIND       PRES   REMARKS
KANSAS CTY INT CLOUDY    57  46  66 N14       30.11S
6HR MIN TEMP:  57; 6HR MAX TEMP:  70;

KANSAS C DTWN  CLOUDY    60  46  59 N7        30.10F
6HR MIN TEMP:  60; 6HR MAX TEMP:  73;

LEE`S SUMMIT   CLOUDY    59  47  64 N9        30.11S
6HR MIN TEMP:  59; 6HR MAX TEMP:  71;

ST JOSEPH      CLOUDY    56  47  71 N14       30.14R
6HR MIN TEMP:  56; 6HR MAX TEMP:  69;

CHILLICOTHE      N/A     62  45  53 N8        30.12R
6HR MIN TEMP:  56; 6HR MAX TEMP:  72;

KIRKSVILLE     CLEAR     57  46  66 N13       30.09R
6HR MIN TEMP:  56; 6HR MAX TEMP:  70;


$$
MOZ066>068-077>081-088>096-101>105-250700-
...SOUTHWEST MISSOURI...

CITY           SKY/WX    TMP DP  RH WIND       PRES   REMARKS
SPRINGFIELD    CLEAR     53  39  59 CALM      30.06S
6HR MIN TEMP:  52; 6HR MAX TEMP:  71;

JOPLIN         CLEAR     57  45  64 N8        30.09F
6HR MIN TEMP:  53; 6HR MAX TEMP:  71;

BRANSON        CLEAR     55  39  54 CALM      30.08S

$$
MOZ032>034-039>042-045>050-055>058-069>072-250700-
...CENTRAL MISSOURI...

CITY           SKY/WX    TMP DP  RH WIND       PRES   REMARKS
COLUMBIA       CLOUDY    58  34  40 N9        30.04S
6HR MIN TEMP:  58; 6HR MAX TEMP:  73;

JEFFERSON CITY PTCLDY    54  43  66 NW5       30.04R
6HR MIN TEMP:  54; 6HR MAX TEMP:  74;

ROLLA          PTCLDY    52  42  69 NW3       30.04S
6HR MIN TEMP:  52; 6HR MAX TEMP:  67;

SEDALIA        CLOUDY    61  45  55 NW12      30.07F
6HR MIN TEMP:  61; 6HR MAX TEMP:  75;

WARRENSBURG    CLOUDY    59  45  58 NW6       30.09S
OSAGE BEACH    CLEAR     51  42  71 W3        30.06S

$$
MOZ051-052-059>065-250700-
...EAST CENTRAL MISSOURI...

CITY           SKY/WX    TMP DP  RH WIND       PRES   REMARKS
ST LOUIS INTL  PTCLDY    55  41  59 W8        29.99F
6HR MIN TEMP:  50; 6HR MAX TEMP:  70;

SPIRIT OF STL  CLEAR     46  44  93 SW3       29.99S
6HR MIN TEMP:  46; 6HR MAX TEMP:  70;

ST CHARLES     CLEAR     56  41  57 W9        29.98S
6HR MIN TEMP:  51; 6HR MAX TEMP:  71;


$$
MOZ072>076-082>087-097>100-106>115-250700-
...SOUTH CENTRAL AND SOUTHEAST MISSOURI...

CITY           SKY/WX    TMP DP  RH WIND       PRES   REMARKS
CAPE GIRARDEAU FAIR      52  50  93 CALM      30.00S
6HR MIN TEMP:  49; 6HR MAX TEMP:  63;

FARMINGTON     CLEAR     50  49  96 CALM      30.01F
6HR MIN TEMP:  49; 6HR MAX TEMP:  64;

POPLAR BLUFF   FAIR      52  52 100 CALM      30.01S FOG
6HR MIN TEMP:  52; 6HR MAX TEMP:  67;

WEST PLAINS    CLEAR     50  45  83 W5        30.06R
6HR MIN TEMP:  50; 6HR MAX TEMP:  69;


$$




USA.gov is the U.S. government's official web portal to all federal, state and local government web resources and services.